CZ-4 DEB

Satellite information

Favourite Embed

Satellite Type and Status

DEBRISIN ORBIT

Key statistics

Satellite CZ-4 DEB at a glance.

Uptime

9397

Days in orbit

Revolutions

≈ 14.5

Per day

Orbit

SSO

Sun Synchronous Orbit

Inclination

98.6

Latest

Satellite identification and parameters

Extended collection of information and parameters for CZ-4 DEB.

Object identification

Identified? True

Debris? True

Object name: CZ-4 DEB

International designator: 1999-057KW

Object number (NORAD): 26449

Object ID (CCSDS): 26449

Country: PEOPLES REPUBLIC OF CHINA (PRC)

Current information (Y/N): Y

RCS size: SMALL

Orbital parameters

Period: 99.313 minutes

Inclination: 98.5548 deg

SMA: 7103.91 km

Apoapsis: 781.729 km

Periapsis: 669.821 km

RAAN: 243.7793 deg

Eccentricy: 0.0078765

Argument of periapsis: 214.4025 deg

Mean anomaly: 308.414 deg

Mean motion: 14.49962012 rev/day

Mean motion (dot): 0.00001103 rev/day2

B* drag term: 0.00028639 1/REarth

Two-line elements (TLE)

Creation date: July 5, 2025, 10:16 p.m.

Reference frame: TEME

Reference center: EARTH

Epoch: July 5, 2025, 4:16 p.m. UTC

TLE line 0: 0 CZ-4 DEB

TLE line 1: 1 26449U 99057KW 25186.67842030 .00001103 00000-0 28639-3 0 9993

TLE line 2: 2 26449 98.5548 243.7793 0078765 214.4025 308.4140 14.49962012328340

Live tracking on map

Real-time ground track for satellite CZ-4 DEB.

In-orbit conjunctions

A list of the most updated potential collisions computed for object CZ-4 DEB.

Target Orbit TCA Probability of collision Miss distance Type
FENGYUN 1C DEB SSO 2024-09-27 00:52:06 0.0001728515 806.0 (m) DEBRIS

Associated space launch

The CBERS (China Brazil Earth Resources Satellite) or ZY 1 (Zi Yuan) satellites are designed for global coverage and include cameras to make optical observations and a data collecting system to gather data on the environment. They are unique systems due to the use of on-board sensors which combine features that are especially designed to resolve the broad range of space and time scales involved in the monitoring and preservation of the ecosystem. They are operated jointly by the China Centre for Resources Satellite Data and Application (CRESDA) and the Brazilian INPE (Instituto Nacional de Pesquisas Espaciais, National Institute of Space Research).

CZ-4 DEB was lifted into orbit during the mission ‘Long March 4B | Zi Yuan 1-1’, on board a Long March 4B space rocket.

The launch took place on Oct. 14, 1999, 3:15 a.m. from Launch Complex 7.

For more information about the launch, click the button.

Launch to space Long March 4B | Zi Yuan 1-1
Long March 4B | Zi Yuan 1-1

Agency: N/A

Status: Launch Successful

Launch date: Oct. 14, 1999, 3:15 a.m. UTC

Rocket: Long March 4B

Launch pad: Launch Complex 7

Location: Taiyuan Satellite Launch Center, People's Republic of China

...

Latest news about this satellite

There are no fresh news available about this satellite. Check back as we update our databases every day.


Newsletter sign-up

Weekly statistics, charts and insights to help you stay on top of the space industry.